Regional Weather Roundup
Issued by NWS

Home | Current Version | Previous Version | Graphics & Text | Print | Product List | Glossary On
Versions: 1 2 3 4 5 6 7 8 9 10 11 12 13 14 15 16 17 18 19 20 21 22 23 24 25 26 27 28 29 30 31 32 33 34 35 36 37 38 39 40 41 42 43 44 45 46 47 48 49 50
000
ASUS45 KBOU 260707
RWRCO

WEATHER ROUNDUP FOR COLORADO
NATIONAL WEATHER SERVICE DENVER/BOULDER CO
100 AM MDT WED JUL 26 2017

NOTE: "FAIR" INDICATES FEW OR NO CLOUDS BELOW 12000 FEET WITH NO
SIGNIFICANT WEATHER AND/OR OBSTRUCTIONS TO VISIBILITY.

COZ001>005-013-030-031-260800-
...NORTHWEST COLORADO...

CITY           SKY/WX    TMP DP  RH WIND       PRES   REMARKS
CRAIG          LGT RAIN  62  59  90 CALM      30.27S FOG
HAYDEN         CLOUDY    61  55  82 CALM      30.29R
MEEKER         LGT RAIN  61  58  90 W3        30.28S
RABBIT EARS PA CLOUDY    50  50 100 SW7       30.54F
STEAMBOAT SPGS CLOUDY    58  57  96 E7        30.30S
WALDEN         CLOUDY    55  54  94 SE3       30.38F
$$

COZ006>008-011-260800-
...WEST CENTRAL VALLEYS...

CITY           SKY/WX    TMP DP  RH WIND       PRES   REMARKS
GRAND JUNCTION FAIR      68  64  87 CALM      30.17S
MONTROSE       CLOUDY    64  63  96 SE3       30.26R
EAGLE          MOCLDY    60  57  89 E5        30.31S
RIFLE          FAIR      67  58  72 CALM      30.21R
DELTA          RAIN      68  62  80 NE5       30.22S
NUCLA          MOCLDY    63  57  82 E3        30.29S
$$

COZ017>023-064>068-260800-
...SOUTHWEST COLORADO...

CITY           SKY/WX    TMP DP  RH WIND       PRES   REMARKS
DURANGO        FAIR      62  59  90 N5        30.31F
CORTEZ         FAIR      61  59  93 E5        30.27S
PAGOSA SPRINGS FAIR      61  59  92 CALM      30.39S
TELLURIDE      CLOUDY    56  53  89 SE6       30.49F
WOLF CREEK PAS FOG       46  46 100 SW9       30.70F VSB<1/4
$$

COZ009-010-012-014-032>034-037-058>063-260800-
...CENTRAL COLORADO...

CITY           SKY/WX    TMP DP  RH WIND       PRES   REMARKS
ASPEN          MOCLDY    57  54  89 CALM      30.36S
BUENA VISTA    FAIR      57  53  86 N3        30.38S
COPPER MTN     CLOUDY    54  41  62 S6        30.66F
BERTHOUD PASS  MOCLDY    43  30  61 NW14      30.68F
COTTONWOOD PAS MOCLDY    59  46  63 CALM      30.51R
GUNNISON       FAIR      57  54  89 CALM      30.39R
KREMMLING      MOCLDY    63  55  77 CALM      30.34F
LEADVILLE      FAIR      47  45  93 E5        30.50F
SALIDA         FAIR      61  58  92 CALM      30.42S
SUNLIGHT       CLOUDY    48  46  93 SW8G16    30.59S
WILKERSON PASS FAIR      50  45  81 SW6       30.62F
$$

COZ069>075-260800-
...SAN LUIS VALLEY/SANGRE DE CRISTO MOUNTAINS...

CITY           SKY/WX    TMP DP  RH WIND       PRES   REMARKS
ALAMOSA        FAIR      58  57  97 W6        30.34F
DEL NORTE      FAIR      57  55  92 W5        30.38F
LA VETA PASS   NOT AVBL
SAGUACHE         N/A    N/A N/A N/A MISG        N/A
$$

COZ035-036-038>040-260800-
...NORTHERN COLORADO FRONT RANGE...

CITY           SKY/WX    TMP DP  RH WIND       PRES   REMARKS
DENVER INTL AP MOCLDY    69  57  65 NW10      30.18F
DMNS CITY PARK   N/A     68  60  74 NE3G17    30.18S
AURORA         NOT AVBL
FRONT RANGE AP FAIR      64  61  88 N9        30.19F
ERIE MUNI ARPT FAIR      66  63  88 CALM      30.17F
BOULDER MUN AP MOCLDY    66  61  82 CALM      30.18F
CENTENNIAL     FAIR      67  61  81 CALM      30.20F
BROOMFIELD     CLOUDY    66  61  82 N8        30.21S
FORT COLLINS   FAIR      66  60  81 NW6       30.17F
LONGMONT       FAIR      69  62  78 NW3       30.19F
$$

COZ041-046-047-076>085-087-088-260800-
...PIKES PEAK/PALMER DIVIDE AND SOUTHERN FOOTHILLS...

CITY           SKY/WX    TMP DP  RH WIND       PRES   REMARKS
COLO. SPRINGS  MOCLDY    66  60  81 NW6       30.22F
A. F. ACADEMY  FAIR      62  55  79 NW3       30.24F
SCHRIEVER AFB  FAIR      67  55  66 N7        30.24F
CHEYENNE MTN   FAIR      65  56  73 NW6       30.22F
ELLICOTT       FAIR     N/A N/A N/A N7        30.20F
FALCON           N/A     65  53  65 N8        30.28F
FORT CARSON    FAIR      66  61  84 NW8       30.18F
LIMON          FAIR      66  62  87 W14       30.17S
MONUMENT HILL  MOCLDY    59  54  82 W5        30.30F
CANON CITY     CLEAR     66  63  88 W10       30.14F
WALSENBURG     FAIR      66  61  82 SE5       30.20F
TRINIDAD       FAIR      71  56  58 CALM      30.21S
$$

COZ042>045-048>051-090-091-260800-
...NORTHEAST COLORADO...

CITY           SKY/WX    TMP DP  RH WIND       PRES   REMARKS
GREELEY ARPT   FAIR      68  58  70 NW8       30.14F
AKRON          FAIR      70  58  65 NW13      30.07S
BURLINGTON     MOCLDY    71  62  73 W9        30.04R
WRAY           NOT AVBL
YUMA           FAIR      68  54  60 W12       30.02R
STERLING       FAIR      72  59  64 CALM      30.03S
HOLYOKE        FAIR      73  63  68 NW10      29.97R
FORT MORGAN    FAIR      69  54  58 NW9       30.09F
$$

COZ086-089-092>099-260800-
...SOUTHEAST COLORADO...

CITY           SKY/WX    TMP DP  RH WIND       PRES   REMARKS
PUEBLO         FAIR      71  61  70 N9        30.09F
LA JUNTA       FAIR      75  59  57 W9        30.07F
LAMAR          FAIR      71  65  81 W12       30.00R
SPRINGFIELD      N/A     79  56  45 SW15G23   30.04F
$$



USA.gov is the U.S. government's official web portal to all federal, state and local government web resources and services.